sat.trackr.live / text

‹ back to catalog

STARLINK-36334

NORAD 67471 · 2026-008AC

PAYLOAD ACTIVE UNKNOWN

§ Identity

Operator
Country
US
Launch date
2026-01-14
Launch site
AFETR
Launch vehicle
Mass (kg)
RCS (m²)

Purposes: comms

External: N2YO · Heavens-Above · Gunter

§ Orbital elements

Epoch: 2026-05-25T05:32:44.628576Z

Period
94.27 min
Inclination
43.0026°
Eccentricity
0.0002144
Mean motion
15.27580238 rev/d
Perigee alt
481.6 km
Apogee alt
484.5 km
Semi-major
6,861.2 km
B*
6.8325e-4
RAAN
133.3448°
Arg perigee
285.6624°
Mean anomaly
74.3991°
Rev number
2,127

§ Raw data

STARLINK-363341 67471U 26008AC  26145.23107209  .00018587  00000+0  68325-3 0  99982 67471  43.0026 133.3448 0002144 285.6624  74.3991 15.27580238 21278

JSON: /api/v1/satellites/67471 · /tle

For live sub-satellite position, see the globe view (requires WebGL).

§ Visibility from observer

Set your observer location to see the next 7 days of passes ≥ 10°. The values pass through the URL so the page stays shareable.

No JS? Fill the form by hand. The geolocation button needs JavaScript.